Time+08,TemperatureF,Dew PointF,Humidity,Sea Level PressureIn,VisibilityMPH,Wind Direction,Wind SpeedMPH,Gust SpeedMPH,PrecipitationIn,Events,Conditions,WindDirDegrees,DateUTC
12:00 AM,73.4,68.0,83,29.98,5.0,North,5.8,-,N/A,,Mostly Cloudy,350,2014-01-16 16:00:00
1:00 AM,71.6,68.0,88,29.98,5.0,NNE,3.5,-,N/A,,Mostly Cloudy,20,2014-01-16 17:00:00
2:00 AM,72,69,85,29.97,5,North,2.3,,,,Haze,10,2014-01-16 18:00:00
2:00 AM,71.6,68.0,88,29.95,5.0,North,2.3,-,N/A,,Mostly Cloudy,10,2014-01-16 18:00:00
3:00 AM,73.4,68.0,83,29.95,5.0,NNW,4.6,-,N/A,,Mostly Cloudy,340,2014-01-16 19:00:00
4:00 AM,73.4,68.0,83,29.92,5.0,NNW,3.5,-,N/A,,Mostly Cloudy,340,2014-01-16 20:00:00
5:00 AM,72,68,85,29.92,4,North,3.5,,,,Haze,10,2014-01-16 21:00:00
5:00 AM,73.4,68.0,83,29.92,4.3,North,3.5,-,N/A,,Mostly Cloudy,10,2014-01-16 21:00:00
6:00 AM,71.6,68.0,88,29.92,4.3,North,4.6,-,N/A,,Mostly Cloudy,350,2014-01-16 22:00:00
7:00 AM,73.4,68.0,83,29.92,4.3,North,5.8,-,N/A,,Mostly Cloudy,10,2014-01-16 23:00:00
8:00 AM,73,69,82,29.96,6,NNW,4.6,,,,Haze,340,2014-01-17 00:00:00
8:00 AM,73.4,68.0,83,29.95,5.6,NNW,4.6,-,N/A,,Mostly Cloudy,340,2014-01-17 00:00:00
9:00 AM,75.2,69.8,83,29.98,6.2,NNW,5.8,-,N/A,,Mostly Cloudy,340,2014-01-17 01:00:00
10:00 AM,78.8,69.8,74,29.98,6.2,North,9.2,-,N/A,,Mostly Cloudy,360,2014-01-17 02:00:00
11:00 AM,80,70,65,29.98,11,North,9.2,,,,Haze,0,2014-01-17 03:00:00
11:00 AM,80.6,69.8,70,29.98,6.2,North,9.2,-,N/A,,Mostly Cloudy,360,2014-01-17 03:00:00
12:00 PM,80.6,69.8,70,29.95,6.2,NNE,10.4,-,N/A,,Mostly Cloudy,20,2014-01-17 04:00:00
1:00 PM,82.4,69.8,66,29.95,6.2,NNE,9.2,-,N/A,,Mostly Cloudy,30,2014-01-17 05:00:00
2:00 PM,80,70,65,29.93,9,NNE,8.1,,,Rain,Light Rain Showers,30,2014-01-17 06:00:00
2:00 PM,80.6,69.8,70,29.92,6.2,NNE,8.1,-,N/A,Rain,Light Rain Showers,30,2014-01-17 06:00:00
3:00 PM,80.6,69.8,70,29.89,6.2,North,6.9,-,N/A,,Mostly Cloudy,10,2014-01-17 07:00:00
4:00 PM,80.6,71.6,74,29.89,6.2,North,5.8,-,N/A,,Mostly Cloudy,10,2014-01-17 08:00:00
5:00 PM,80,70,64,29.89,10,NNE,6.9,,,,Haze,20,2014-01-17 09:00:00
5:00 PM,78.8,69.8,74,29.89,6.2,NNE,6.9,-,N/A,,Mostly Cloudy,20,2014-01-17 09:00:00
6:00 PM,78.8,69.8,74,29.89,6.2,NNE,5.8,-,N/A,,Mostly Cloudy,20,2014-01-17 10:00:00
7:00 PM,77.0,69.8,78,29.92,6.2,NNE,4.6,-,N/A,,Mostly Cloudy,20,2014-01-17 11:00:00
8:00 PM,77,70,72,29.94,9,North,4.6,,,,Haze,350,2014-01-17 12:00:00
8:00 PM,77.0,69.8,78,29.92,6.2,North,4.6,-,N/A,,Mostly Cloudy,350,2014-01-17 12:00:00
9:00 PM,77.0,69.8,78,29.95,6.2,North,4.6,-,N/A,,Mostly Cloudy,350,2014-01-17 13:00:00
10:00 PM,77.0,69.8,78,29.98,6.2,NE,2.3,-,N/A,,Mostly Cloudy,40,2014-01-17 14:00:00
11:00 PM,75,69,78,29.99,7,North,6.9,,,,Haze,0,2014-01-17 15:00:00
11:00 PM,75.2,69.8,83,29.98,6.2,North,6.9,-,N/A,,Mostly Cloudy,360,2014-01-17 15:00:00